Latest Coastal Weather Observations for Adele Island

IDW60701

Issued at 6:22 pm WST Sunday 2 August 2015 (issued every 10 minutes, with the page automatically refreshed every 10 minutes)

About coastal observations | Map of coastal stations | Coastal observations for WA | Marine services | Other Formats
Station Details ID: 200735 Name: ADELE ISLAND Lat: -15.51 Lon: 123.16 Height: 4.6 m
Data from the previous 72 hours. | See also: Recent months at Adele Island
Date/Time
WST
Temp

°C
Wind Pressure Rain
since 9am
mm
Weather Cloud Vis
km
Sea
Height
m
Swell
Dir
 
Speed
knots
Gust
knots
hPa Trend Height
m
Period
s
Dir
02/06:00pm 24.9 S 11 13 1015.2 - - - - - - - - -
02/05:30pm 25.2 SSW 11 14 1014.9 - - - - - - - - -
02/05:00pm 25.9 SSW 11 14 1014.7 - - - - - - - - -
02/04:30pm 26.4 SSW 11 14 1014.6 - - - - - - - - -
02/04:00pm 26.5 SSW 11 13 1014.6 - - - - - - - - -
02/03:30pm 26.7 SSW 12 14 1014.5 - - - - - - - - -
02/03:00pm 26.4 SSW 12 15 1014.6 - - - - - - - - -
02/02:30pm 27.5 S 13 16 1014.7 - - - - - - - - -
02/02:00pm 27.3 SSW 13 16 1015.0 - - - - - - - - -
02/01:30pm 27.2 S 11 15 1015.3 - - - - - - - - -
02/01:00pm 27.0 S 13 17 1015.5 - - - - - - - - -
02/12:30pm 26.7 SSE 15 17 1015.8 - - - - - - - - -
02/12:00pm 27.1 SSE 13 16 1016.2 - - - - - - - - -
02/11:30am 27.0 SSE 13 16 1016.6 - - - - - - - - -
02/11:00am 26.5 SSE 14 18 1017.1 - - - - - - - - -
02/10:30am 26.8 SSE 15 17 1017.4 - - - - - - - - -
02/10:00am 26.6 SSE 13 17 1017.4 - - - - - - - - -
02/09:30am 25.9 SSE 13 16 1017.6 - - - - - - - - -
02/09:00am 26.4 SSE 13 16 1017.6 - - - - - - - - -
02/08:30am 25.8 SSE 12 15 1017.4 - - - - - - - - -
02/08:00am 25.1 SSE 12 15 1017.0 - - - - - - - - -
02/07:30am 24.6 SSE 11 13 1016.8 - - - - - - - - -
02/07:00am 23.8 SSE 11 12 1016.5 - - - - - - - - -
02/06:30am 23.1 S 9 11 1016.3 - - - - - - - - -
02/06:00am 23.1 S 10 12 1015.9 - - - - - - - - -
02/05:30am 23.7 S 12 16 1015.7 - - - - - - - - -
02/05:00am 23.5 S 11 14 1015.5 - - - - - - - - -
02/04:30am 23.8 S 11 13 1015.4 - - - - - - - - -
02/04:00am 23.9 S 12 15 1015.2 - - - - - - - - -
02/03:30am 23.7 S 11 14 1015.2 - - - - - - - - -
02/03:00am 24.1 S 13 16 1015.1 - - - - - - - - -
02/02:30am 24.2 S 12 16 1015.2 - - - - - - - - -
02/02:00am 24.0 S 13 16 1015.5 - - - - - - - - -
02/01:30am 24.5 SSW 13 17 1015.6 - - - - - - - - -
02/01:00am 24.8 SSW 15 18 1015.7 - - - - - - - - -
02/12:30am 25.0 SSW 14 19 1015.8 - - - - - - - - -
02/12:00am 25.2 SSW 15 19 1015.8 - - - - - - - - -
 
Date/Time
WST
Temp

°C
Wind Pressure Rain
since 9am
mm
Weather Cloud Vis
km
Sea
Height
m
Swell
Dir
 
Speed
knots
Gust
knots
hPa Trend Height
m
Period
s
Dir
01/11:30pm 25.3 SSW 14 18 1015.9 - - - - - - - - -
01/11:00pm 25.0 SSW 14 16 1015.9 - - - - - - - - -
01/10:30pm 24.5 SSW 13 16 1016.0 - - - - - - - - -
01/10:00pm 24.6 SSW 12 15 1016.0 - - - - - - - - -
01/09:30pm 24.6 SSW 11 14 1016.0 - - - - - - - - -
01/09:00pm 24.4 SSW 10 11 1015.9 - - - - - - - - -
01/08:30pm 24.4 SSW 11 12 1016.0 - - - - - - - - -
01/08:00pm 24.5 SSW 9 11 1015.8 - - - - - - - - -
01/07:30pm 24.7 SSW 9 9 1015.9 - - - - - - - - -
01/07:00pm 25.0 SSW 8 8 1015.7 - - - - - - - - -
01/06:30pm 25.0 SSW 8 9 1015.2 - - - - - - - - -
01/06:00pm 25.1 SSW 9 10 1014.9 - - - - - - - - -
01/05:30pm 25.4 SSW 8 9 1014.7 - - - - - - - - -
01/05:00pm 25.8 SW 7 9 1014.6 - - - - - - - - -
01/04:30pm 26.4 SW 7 9 1014.5 - - - - - - - - -
01/04:00pm 26.6 SW 7 9 1014.5 - - - - - - - - -
01/03:30pm 26.7 SW 7 9 1014.5 - - - - - - - - -
01/03:00pm 26.7 SW 7 9 1014.5 - - - - - - - - -
01/02:30pm 26.8 SW 6 8 1014.7 - - - - - - - - -
01/02:00pm 27.5 S 5 8 1015.0 - - - - - - - - -
01/01:30pm 27.3 SE 7 9 1015.2 - - - - - - - - -
01/01:00pm 27.1 ESE 7 9 1015.6 - - - - - - - - -
01/12:30pm 26.6 ESE 6 9 1016.0 - - - - - - - - -
01/12:00pm 27.1 ESE 7 9 1016.4 - - - - - - - - -
01/11:30am 27.2 E 7 9 1016.7 - - - - - - - - -
01/11:00am 27.6 SE 7 9 1017.1 - - - - - - - - -
01/10:30am 27.0 ESE 6 8 1017.4 - - - - - - - - -
01/10:00am 27.0 ESE 7 9 1017.7 - - - - - - - - -
01/09:30am 26.3 SE 8 9 1017.9 - - - - - - - - -
01/09:00am 26.1 SE 8 9 1017.7 - - - - - - - - -
01/08:30am 26.1 SE 6 8 1017.7 - - - - - - - - -
01/08:00am 25.3 SSE 7 8 1017.4 - - - - - - - - -
01/07:30am 24.1 SSE 6 7 1017.0 - - - - - - - - -
01/07:00am 23.3 SSE 7 8 1016.6 - - - - - - - - -
01/06:30am 23.5 S 9 10 1016.2 - - - - - - - - -
01/06:00am 24.4 S 9 10 1016.0 - - - - - - - - -
01/05:30am 24.9 SSE 8 9 1015.8 - - - - - - - - -
01/05:00am 24.8 SE 7 8 1015.6 - - - - - - - - -
01/04:30am 25.0 SE 7 8 1015.2 - - - - - - - - -
01/04:00am 25.1 SE 7 8 1015.0 - - - - - - - - -
01/03:30am 25.0 SE 7 8 1015.1 - - - - - - - - -
01/03:00am 24.6 SSE 7 8 1015.0 - - - - - - - - -
01/02:30am 24.8 S 7 8 1014.9 - - - - - - - - -
01/02:00am 24.4 S 7 8 1014.9 - - - - - - - - -
01/01:30am 25.0 S 9 11 1014.9 - - - - - - - - -
01/01:00am 24.9 SSW 10 12 1015.0 - - - - - - - - -
01/12:30am 24.9 SSW 10 11 1015.1 - - - - - - - - -
01/12:00am 25.0 SSW 10 12 1015.2 - - - - - - - - -
 
Date/Time
WST
Temp

°C
Wind Pressure Rain
since 9am
mm
Weather Cloud Vis
km
Sea
Height
m
Swell
Dir
 
Speed
knots
Gust
knots
hPa Trend Height
m
Period
s
Dir
31/11:30pm 25.0 SSW 11 13 1015.3 - - - - - - - - -
31/11:00pm 25.0 SSW 11 14 1015.4 - - - - - - - - -
31/10:30pm 25.0 SSW 11 13 1015.6 - - - - - - - - -
31/10:00pm 25.1 SSW 11 13 1015.7 - - - - - - - - -
31/09:30pm 25.0 SW 9 11 1015.6 - - - - - - - - -
31/09:00pm 25.3 SSW 10 11 1015.6 - - - - - - - - -
31/08:30pm 25.3 SSW 8 9 1015.5 - - - - - - - - -
31/08:00pm 25.0 SSW 8 9 1015.3 - - - - - - - - -
31/07:30pm 25.2 SW 7 8 1015.0 - - - - - - - - -
31/07:00pm 25.2 SW 7 8 1014.7 - - - - - - - - -
31/06:30pm 25.0 SW 7 8 1014.6 - - - - - - - - -
31/06:00pm 25.2 SSW 7 8 1014.3 - - - - - - - - -
31/05:30pm 25.1 SSW 7 8 1014.1 - - - - - - - - -
31/05:00pm 25.7 S 7 8 1014.0 - - - - - - - - -
31/04:30pm 26.0 SSW 7 9 1013.8 - - - - - - - - -
31/04:00pm 26.1 SSW 7 9 1013.8 - - - - - - - - -
31/03:30pm 27.0 ENE 5 7 1013.8 - - - - - - - - -
31/03:00pm 27.2 ESE 6 8 1013.9 - - - - - - - - -
31/02:30pm 26.8 ENE 6 8 1014.2 - - - - - - - - -
31/02:00pm 27.2 NE 4 7 1014.4 - - - - - - - - -
31/01:30pm 26.8 E 7 8 1014.9 - - - - - - - - -
31/01:00pm 27.0 E 8 10 1015.3 - - - - - - - - -
31/12:30pm 26.8 ESE 7 9 1015.8 - - - - - - - - -
31/12:00pm 26.6 E 7 9 1016.0 - - - - - - - - -
31/11:30am 27.1 E 8 9 1016.4 - - - - - - - - -
31/11:00am 26.7 E 8 10 1016.7 - - - - - - - - -
31/10:30am 26.8 E 7 10 1016.9 - - - - - - - - -
31/10:00am 26.8 ESE 7 9 1017.2 - - - - - - - - -
31/09:30am 26.5 ESE 8 10 1017.3 - - - - - - - - -
31/09:00am 26.3 SE 8 10 1017.4 - - - - - - - - -
31/08:30am 25.5 SE 9 10 1017.2 - - - - - - - - -
31/08:00am 25.2 SSE 7 9 1017.0 - - - - - - - - -
31/07:30am 24.6 SSE 5 6 1016.7 - - - - - - - - -
31/07:00am 24.7 SSE 4 6 1016.3 - - - - - - - - -
31/06:30am 24.5 SSE 6 7 1016.0 - - - - - - - - -
31/06:00am 24.5 SSE 6 6 1015.7 - - - - - - - - -
31/05:30am 24.7 SSE 6 6 1015.5 - - - - - - - - -
31/05:00am 24.8 SSE 4 5 1015.4 - - - - - - - - -
31/04:30am 25.0 ENE 5 5 1015.4 - - - - - - - - -
31/04:00am 25.1 NE 5 5 1015.3 - - - - - - - - -
31/03:30am 24.8 NNE 3 3 1015.4 - - - - - - - - -
31/03:00am 25.0 CALM 0 0 1015.7 - - - - - - - - -
31/02:30am 25.2 NNE 3 3 1015.8 - - - - - - - - -
31/02:00am 25.3 NNE 1 4 1015.9 - - - - - - - - -
31/01:30am 25.0 NNE 3 4 1016.2 - - - - - - - - -
31/01:00am 25.7 N 3 4 1016.4 - - - - - - - - -
31/12:30am 25.8 N 4 5 1016.7 - - - - - - - - -
31/12:00am 25.7 CALM 0 0 1016.9 - - - - - - - - -
 
Date/Time
WST
Temp

°C
Wind Pressure Rain
since 9am
mm
Weather Cloud Vis
km
Sea
Height
m
Swell
Dir
 
Speed
knots
Gust
knots
hPa Trend Height
m
Period
s
Dir
30/11:30pm 25.8 N 2 4 1017.1 - - - - - - - - -
30/11:00pm 26.1 NNW 4 5 1017.2 - - - - - - - - -
30/10:30pm 26.3 NNW 5 6 1017.2 - - - - - - - - -
30/10:00pm 26.1 NNW 5 6 1017.1 - - - - - - - - -
30/09:30pm 26.1 WNW 5 6 1017.1 - - - - - - - - -
30/09:00pm 25.9 W 6 7 1017.1 - - - - - - - - -
30/08:30pm 25.8 SW 7 7 1017.0 - - - - - - - - -
30/08:00pm 25.7 WSW 7 8 1016.8 - - - - - - - - -
30/07:30pm 25.9 WSW 7 7 1016.6 - - - - - - - - -
30/07:00pm 25.5 WSW 7 7 1016.3 - - - - - - - - -
30/06:30pm 25.6 SW 7 8 1016.1 - - - - - - - - -

Other Formats:

Comma delimited format used in spreadsheet applications
http://www.bom.gov.au/fwo/IDW60701/IDW60701.94210.axf

JavaScript Object Notation format (JSON) in row-major order
http://www.bom.gov.au/fwo/IDW60701/IDW60701.94210.json